TimeMST,TemperatureF,Dew PointF,Humidity,Sea Level PressureIn,VisibilityMPH,Wind Direction,Wind SpeedMPH,Gust SpeedMPH,PrecipitationIn,Events,Conditions,WindDirDegrees,DateUTC
12:00 AM,-9999,-9999,N/A,-9999,-9999.0,North,-9999.0,-,N/A,,Unknown,0,2013-02-19 07:00:00
12:53 AM,3.0,-0.9,84,30.18,10.0,Calm,Calm,-,N/A,,Clear,0,2013-02-19 07:53:00
1:53 AM,5.0,-0.9,76,30.18,10.0,SSW,3.5,-,N/A,,Clear,210,2013-02-19 08:53:00
2:53 AM,3.9,-0.9,80,30.17,10.0,WSW,4.6,-,N/A,,Clear,250,2013-02-19 09:53:00
3:53 AM,1.9,-2.9,80,30.18,10.0,Calm,Calm,-,N/A,,Clear,0,2013-02-19 10:53:00
4:53 AM,-0.0,-5.1,79,30.21,10.0,Calm,Calm,-,N/A,,Clear,0,2013-02-19 11:53:00
5:25 AM,-0.4,-2.2,92,29.97,5.0,South,6.9,-,N/A,,Scattered Clouds,190,2013-02-19 12:25:00
5:30 AM,-0.4,-2.2,92,29.97,1.2,South,8.1,-,N/A,,Scattered Clouds,190,2013-02-19 12:30:00
5:32 AM,1.4,-2.2,85,29.97,0.8,SSW,6.9,-,N/A,,Mist,200,2013-02-19 12:32:00
5:53 AM,-0.0,-2.9,88,30.23,0.8,Calm,Calm,-,N/A,,Mist,0,2013-02-19 12:53:00
6:04 AM,-0.4,-2.2,92,29.96,1.8,SSW,4.6,-,N/A,,Overcast,200,2013-02-19 13:04:00
6:12 AM,-2.2,-5.8,85,29.96,2.0,SSW,4.6,-,N/A,,Overcast,200,2013-02-19 13:12:00
6:22 AM,-0.4,-5.8,78,29.96,6.0,SSW,4.6,-,N/A,,Mostly Cloudy,200,2013-02-19 13:22:00
6:33 AM,-2.2,-7.6,78,29.96,10.0,SSW,5.8,-,N/A,,Scattered Clouds,210,2013-02-19 13:33:00
6:53 AM,-0.9,-6.0,79,30.24,10.0,Calm,Calm,-,N/A,,Clear,0,2013-02-19 13:53:00
7:53 AM,5.0,-0.0,80,30.23,10.0,Calm,Calm,-,N/A,,Clear,0,2013-02-19 14:53:00
8:53 AM,12.9,8.1,81,30.20,10.0,South,10.4,-,N/A,,Clear,190,2013-02-19 15:53:00
9:53 AM,19.0,10.0,68,30.17,10.0,South,8.1,-,N/A,,Clear,190,2013-02-19 16:53:00
10:53 AM,23.0,12.0,63,30.17,10.0,SSW,13.8,21.9,N/A,,Clear,200,2013-02-19 17:53:00
11:53 AM,21.9,12.9,68,30.16,10.0,South,10.4,19.6,N/A,,Clear,170,2013-02-19 18:53:00
12:53 PM,24.1,12.0,60,30.12,10.0,South,10.4,17.3,N/A,,Clear,170,2013-02-19 19:53:00
1:53 PM,21.0,12.9,71,30.12,10.0,SSE,6.9,-,N/A,,Partly Cloudy,150,2013-02-19 20:53:00
2:53 PM,19.9,12.9,74,30.13,10.0,ESE,11.5,-,N/A,,Mostly Cloudy,120,2013-02-19 21:53:00
3:01 PM,19.4,12.2,74,29.90,10.0,SE,12.7,-,N/A,,Scattered Clouds,130,2013-02-19 22:01:00
3:22 PM,19.4,12.2,74,29.89,10.0,ESE,11.5,17.3,N/A,,Mostly Cloudy,120,2013-02-19 22:22:00
3:53 PM,19.0,12.9,77,30.13,10.0,SE,11.5,-,N/A,,Overcast,130,2013-02-19 22:53:00
6:40 PM,15.8,10.4,79,29.88,10.0,East,9.2,-,N/A,,Overcast,100,2013-02-20 01:40:00
6:53 PM,16.0,10.9,81,30.14,10.0,ESE,5.8,-,N/A,,Overcast,110,2013-02-20 01:53:00
7:50 PM,17.6,12.2,79,29.87,10.0,SE,8.1,-,N/A,,Mostly Cloudy,140,2013-02-20 02:50:00
7:53 PM,17.1,12.9,84,30.11,10.0,SE,8.1,-,N/A,,Mostly Cloudy,130,2013-02-20 02:53:00
8:27 PM,17.6,12.2,79,29.87,10.0,SE,9.2,-,N/A,,Scattered Clouds,130,2013-02-20 03:27:00
8:53 PM,17.1,12.9,84,30.07,10.0,South,6.9,-,N/A,,Partly Cloudy,190,2013-02-20 03:53:00
9:53 PM,18.0,14.0,84,30.04,10.0,South,9.2,-,N/A,,Clear,180,2013-02-20 04:53:00
10:53 PM,18.0,12.9,81,30.01,10.0,South,8.1,-,N/A,,Clear,170,2013-02-20 05:53:00
11:53 PM,16.0,12.0,84,30.02,10.0,SSW,6.9,-,N/A,,Clear,200,2013-02-20 06:53:00